National Weather Service United States Department of Commerce

Observations from across/near northern Michigan

Marine Observations

Michigan Hourly Observations

 

Yesterday's high, low and precipitation reports from across northern Michigan

Northern Michigan Temperatures and Precipitation

 

Observation Text Products


000
SXUS83 KAPX 010838
OMRAPX

Marine Observations
National Weather Service Gaylord MI
438 AM EDT Sat Oct 1 2022

WIND DATA (KTS) WAVES WATER
SITE DATE/TIME DIR SPEED GUST (FT) TEMP(F) SITE NAME
-------------------------------------------------------------

Lake Superior/St Marys River

GRMM4 010740Z 220 7 8 Grand Marais
WFPM4 010740Z CALM Whitefish Point
PTIM4 010754Z 240 1 2 Point Iroquois
CYAM 010800Z CALM SOO (Canada)
KANJ 010755Z CALM Sault Ste Marie
SWPM4 010754Z 230 1 60.26 S.W. Pier
LTRM4 010754Z 230 1 58.46 Little Rapids
RCKM4 010754Z CALM 1 58.46 Rock Cut
WNEM4 010754Z CALM 1 58.99 West Nebish Island

Lake Huron

DTLM4 010754Z 320 3 4 58.09 DeTour Village
KDRM 010815Z CALM Drummond Island
KMCD 010815Z 360 3 Mackinac Island
MACM4 010754Z CALM 1 60.07 Mackinac City
KSLH 010815Z CALM Cheboygan Airport
CYGM4 010750Z CALM Cheboygan Marina
SRLM4 010800Z 340 5 57.74 Spectacle Reef Light
KPZQ 010815Z CALM Rogers City
PRIM4 010750Z 250 1 7 Presque Isle Light
KAPN 010754Z CALM Alpena Guard Base
APNM4 010810Z 310 2 3 Alpena Harbor Light
TBIM4 010800Z 310 4 Thunder Bay Island
SPTM4 010750Z 290 1 4 Sturgeon Point Light
KOSC 010815Z CALM Oscoda
TAWM4 010740Z 340 5 8 Tawas Point
GSLM4 010740Z 340 8 9 Gravelly Shoals

Lake Michigan

KISQ 010815Z CALM Manistique
PNLM4 010754Z 10 5 6 54.68 Port Inland
NABM4 010740Z 350 2 Naubinway
KSJX 010815Z CALM St James
KPLN 010754Z CALM Pellston
KMGN 010815Z 50 3 Harbor Springs
KCVX 010815Z CALM Charlevoix
GTLM4 010740Z 110 3 4 Grand Traverse Light
KTVC 010753Z CALM Traverse City
KFKS 010815Z CALM Frankfort
MEEM4 010740Z 90 2 3 Manistee Harbor
BSBM4 010740Z 40 4 6 Big Sable Point
LDTM4 010754Z 80 4 5 Ludington
KLDM 010815Z CALM Ludington Airport


000
ASUS43 KDTX 010901
RWRMI
MICHIGAN HOURLY REGIONAL WEATHER ROUNDUP
NATIONAL WEATHER SERVICE DETROIT/PONTIAC MI
500 AM EDT SAT OCT 01 2022

NOTE: "FAIR" INDICATES FEW OR NO CLOUDS BELOW 12,000 FEET WITH NO
SIGNIFICANT WEATHER AND/OR OBSTRUCTION TO VISIBILITY.

MIZ047>049-052>055-059>063-066>070-074>076-081>083-011000-
SOUTHEAST LOWER MICHIGAN

CITY SKY/WX TMP DP RH WIND PRES REMARKS
ADRIAN PTCLDY 47 44 90 NE8 30.15F
ALMA CLEAR 44 43 97 CALM 30.21S FOG
ANN ARBOR PTCLDY 49 43 80 CALM 30.15S
BAD AXE CLEAR 38 38 100 N3 30.20S FOG
CARO CLEAR 40 38 93 CALM 30.20S
DETROIT CITY MOCLDY 52 45 77 N6 30.16S
DETROIT MOCLDY 50 45 83 N6 30.15F
FLINT CLEAR 43 41 93 CALM 30.20S
GROSSE ILE MOCLDY 54 43 66 N7 30.14S
HILLSDALE CLEAR 40 38 94 CALM 30.15S
HOWELL CLEAR 46 45 97 N5 30.18R

CITY SKY/WX TMP DP RH WIND PRES REMARKS
JACKSON CLEAR 39 39 100 CALM 30.17S FOG
LAMBERTVILLE MOCLDY 52 46 81 NE7 30.13S
LANSING CLEAR 45 42 89 N3 30.20S
LAPEER PTCLDY 39 37 91 CALM 30.19S
MONROE MOCLDY 49 46 88 N7 30.13S
MT. CLEMENS MOCLDY 48 48 99 N6 30.14S
PONTIAC PTCLDY 48 45 89 NE5 30.17S
PORT HURON MOCLDY 43 39 87 CALM 30.17S
TRI CITIES CLEAR 44 43 96 N5 30.22S
MIDLAND CLEAR 39 39 100 CALM 30.21S
TROY MOCLDY 53 48 83 N3 30.18S
SAGINAW HB FOG 40 39 94 CALM 30.21S VSB 1/4
$$
MIZ043>046-050>051-056>058-064>065-071>073-077>080-011000-
SOUTHWEST LOWER MICHIGAN

CITY SKY/WX TMP DP RH WIND PRES REMARKS
BATTLE CREEK CLEAR 45 42 89 CALM 30.18S
BENTON HARBOR CLEAR 43 42 97 CALM 30.18R FOG
BIG RAPIDS CLEAR 40 38 94 CALM 30.22S
COLDWATER CLEAR 41 40 97 CALM 30.17R
FREMONT FAIR 43 40 91 CALM 30.21S
HOLLAND CLEAR 45 43 93 CALM 30.20S
GRAND RAPIDS CLEAR 44 42 93 NE5 30.20S
IONIA FAIR 44 44 100 N5 30.20R
KALAMAZOO CLEAR 45 43 93 CALM 30.18S FOG
LUDINGTON FOG 39 37 93 CALM 30.22S VSB 1/2
MARSHALL CLEAR 40 40 97 CALM 30.17S
MOUNT PLEASANT FOG 39 39 100 CALM 30.21F VSB 3/4
MUSKEGON CLEAR 47 43 86 CALM 30.21S
SOUTH HAVEN CLEAR 43 41 95 CALM 30.19S
$$
MIZ016>042-011000-
NORTHERN LOWER MICHIGAN

CITY SKY/WX TMP DP RH WIND PRES REMARKS
ALPENA N/A 37 36 96 CALM 30.24R VSB 1
BEAVER ISLAND CLEAR 41 41 100 CALM 30.24R FOG
BELLAIRE FOG 38 37 98 CALM 30.25R VSB 1/2
CADILLAC PTCLDY 34 33 95 CALM 30.22S
CHARLEVOIX PTCLDY 42 42 100 CALM 30.24R
FRANKFORT CLEAR 38 35 90 CALM 30.23R
GAYLORD CLEAR 38 33 82 CALM 30.23S
HARBOR SPRINGS PTCLDY 40 40 100 NE3 30.24R
HOUGHTON LAKE PTCLDY 33 31 92 N3 30.23F
MANISTEE FOG 35 35 100 E3 30.22S VSB 3/4
OSCODA CLEAR 41 41 100 CALM 30.22S
PELLSTON CLEAR 34 32 92 CALM 30.25R
ROGERS CITY CLEAR 38 37 95 SW3 30.24S
TRAVERSE CITY CLEAR 42 39 89 CALM 30.22S
$$
MIZ007>008-015-011000-
EASTERN UPPER MICHIGAN

CITY SKY/WX TMP DP RH WIND PRES REMARKS
KINROSS FOG 46 46 100 W3 30.24S VSB 1/2
MACKINAC ISLAN FOG 47 47 100 CALM 30.23S VSB 1/2
NEWBERRY FOG 39 38 98 CALM 30.23S VSB 1/2
S. S. MARIE CLEAR 45 44 97 CALM 30.23R
$$
MIZ004>006-011>014-085-011000-
CENTRAL UPPER MICHIGAN

CITY SKY/WX TMP DP RH WIND PRES REMARKS
MANISTIQUE CLEAR 39 39 99 CALM 30.23S FOG
ESCANABA CLEAR 39 39 100 CALM 30.23S
MENOMINEE CLEAR 44 44 100 NW8 30.24R FOG
MUNISING N/A 48 47 96 S6 30.22R
$$
MIZ001>003-009>011-084-011000-
WESTERN UPPER MICHIGAN

CITY SKY/WX TMP DP RH WIND PRES REMARKS
IRON MOUNTAIN CLEAR 39 37 92 CALM 30.23R
HOUGHTON PTCLDY 46 44 93 NW5 30.22S
COPPER HARBOR N/A 54 50 86 VRB3 30.24R
IRONWOOD CLEAR 37 37 100 E3 30.25S FOG
$$

ABBREVIATIONS USED IN REMARKS
TC - TEMPERATURE IN CELSIUS
WCI - WIND CHILL INDEX
HX - HEAT INDEX
VSB - VISIBILITY




000
ASUS63 KAPX 010008
RTPAPX


Eastern Upper/Northern Lower Michigan Temperature and Precip Summary
National Weather Service Gaylord MI
808 PM EDT Fri Sep 30 2022

18 hour High/Low Temperature ending 8 pm EDT
24 hour Precipitation/Snowfall ending 8 pm EDT
Snow Depth observed at 8 pm EDT

.BR APX 0930 ES DH19/TAIRZS/TAIRZI/PPDRZZ/SFDRZZ/SDIRZZ
:..................................................................
: MAX MIN 24 HR SNOW SNOW
:ID LOCATION TEMP TEMP PRECIP FALL DEPTH
:..................................................................
ANJ : Sault Ste Marie : 67 / 39 / 0.00 / 0.0 / 0
APN : Alpena : 66 / 31 / 0.00 / 0.0 / 0
HTL : Houghton Lake : 65 / 29 / 0.00 / 0.0 / 0
PLN : Pellston : 66 / 30 / 0.00 / M / M
TVC : Traverse City : 67 / 37 / 0.00 / M / M
GLR : Gaylord : 67 / 33 / 0.00 / M / M
.END

Cooperative Observations
Temperature/Precipitation/Snowfall values are for 24 hour period
ending 8 pm EDT. Snow Depth is observed at 8 pm EDT.
...................................................................
OBS MAX MIN SNOW SNOW
ID LOCATION TIME TEMP TEMP PCPN FALL DEPTH
...................................................................
FRKM4: Frankfort 2NE :DH1810/ 58 / 43 / 0.00 / 0.0 / 0.0
MAPM4: Maple City 1E :DH1800/ 64 / 36 / 0.00 / 0.0 / 0.0
ONAM4: Onaway 4N :DH1800/ 64 / 34 / 0.00 / 0.0 / 0.0

These data are preliminary and have not undergone final quality
control by the National Centers for Environmental Information.
Therefore...these data are subject to revision. Final
and certified climate data can be accessed at www.ncdc.noaa.gov.

&&

The following are supplemental temperature and precipitation data.
This includes data which are received from non-National Weather
Service maintained observing systems...as well as reports from
public weather spotters. Data is only partially quality controlled
and is not suitable for official climatological records.

.BR APX 0930 ES DH19/TAIRZS/TAIRZI
:
:Automated Temperature Data--18 hr High/Low ending 8 pm EDT
:..................................................................
: MAX MIN
:ID LOCATION TEMP TEMP
:..................................................................
:
ERY : Newberry : 64 / 39
CIU : Kinross : 64 / 39
MCD : Mackinac Island : 60 / 45
DRM : Drummond Island : 60 / 36
SJX : Beaver Island : 62 / 39
SLH : Cheboygan : 64 / 34
PZQ : Rogers City : 64 / 42
CVX : Charlevoix : 62 / 39
MGN : Harbor Springs : 62 / 38
ACB : Bellaire : 65 / 33
FKS : Frankfort : 62 / 35
MBL : Manistee : 64 / 35
CAD : Cadillac : 65 / 30
Y31 : West Branch : 66 / 31
OSC : Oscoda : 65 / 32
LDM : Ludington : 63 / 35
RQB : Big Rapids : 65 / 36
MOP : Mount Pleasant : 64 / 35
IKW : Midland : 65 / 35
.END

U.S. Forest Service Remote Automated Weather Stations (RAWS)
Data is only partially quality controlled
18 hour High/Low Temperature ending 8 pm EDT
Minimum Relative Humidity over past 18 hours
12/24 hour Precipitation ending 8 pm EDT
...................................................................
MAX MIN MIN 12 HR 24 HR
ID LOCATION TEMP TEMP RH PRECIP PRECIP
...................................................................
AGRM4: Alger RAWS : 69 / 30 / 40 / 0.00 / 0.00
ATAM4: Atlanta RAWS : 70 / 29 / 31 / 0.00 / 0.00
BCYM4: Barton City RAWS : 69 / 29 / 31 / 0.00 / 0.00
GYGM4: Grayling RAWS : 69 / 31 / 33 / 0.00 / 0.00
INDM4: Indian River RAWS : 69 / 32 / 37 / 0.00 / 0.00
MMOM4: Mio RAWS : 68 / 28 / 32 / 0.00 / 0.00
NMIM4: N Manitou Island : 63 / 41 / 56 / 0.00 / 0.00
RACM4: Raco RAWS : 65 / 33 / 43 / 0.00 / 0.00
REXM4: Rexton RAWS : 65 / 35 / 51 / 0.00 / 0.00
RSCM4: Roscommon RAWS : 67 / 26 / M / 0.00 / 0.00
RYDM4: Rudyard RAWS : 66 / 33 / 53 / 0.00 / 0.00
SBDM4: The Bear RAWS : 61 / 35 / 61 / 0.00 / 0.00
SCKM4: Silver Creek RAWS : 68 / 29 / 42 / 0.00 / 0.00
WLLM4: Wellston RAWS : 69 / 34 / 40 / 0.00 / 0.00

The following are precipitation reports received by the National
Weather Service in Gaylord...valid for the time period ending
around 8 pm EDT. All reports have been recorded in inches.

Spotter Reports from Eastern Upper and Northern Lower Michigan:

WATER TIME SNOW
LOCATION RAIN SNOW EQUIV PERIOD DEPTH

NO REPORTS




$$